• In Hungary
  • List of Countries
  • For 7 days
  • Water Temperature
  • Satellite Maps
  • Weather Map
  • News
  • Weather Widgets
  • user-avatar
    Login

    Hourly Weather Predjama

    Today, 17 October, Wednesday

    Time Temperature Precipitation Wind Pressure Humidity
    00:00 +11°C° 0 mm 1 mps 699 mmHg 85%
    01:00 +11°C° 0 mm 1 mps 699 mmHg 86%
    02:00 +11°C° 0 mm 1 mps 699 mmHg 86%
    03:00 +11°C° 0 mm 1 mps 699 mmHg 86%
    04:00 +11°C° 0 mm 1 mps 698 mmHg 86%
    05:00 +11°C° 0.1 mm 1 mps 698 mmHg 86%
    06:00 +11°C° 0.1 mm 1 mps 698 mmHg 86%
    07:00 +11°C° 0 mm 1 mps 698 mmHg 85%
    08:00 +13°C° 0.2 mm 1 mps 698 mmHg 82%
    09:00 +14°C° 0.2 mm 1 mps 699 mmHg 79%
    10:00 +15°C° 0.2 mm 1 mps 699 mmHg 77%
    11:00 +16°C° 0.1 mm 1 mps 699 mmHg 74%
    12:00 +16°C° 0.1 mm 1 mps 698 mmHg 72%
    13:00 +18°C° 0.1 mm 1 mps 698 mmHg 70%
    14:00 +18°C° 0.1 mm 1 mps 698 mmHg 71%
    15:00 +18°C° 0.1 mm 1 mps 698 mmHg 72%
    16:00 +16°C° 0.1 mm 1 mps 698 mmHg 73%
    17:00 +15°C° 0.1 mm 1 mps 698 mmHg 78%
    18:00 +14°C° 0.1 mm 1 mps 698 mmHg 83%
    19:00 +12°C° 0.1 mm 1 mps 697 mmHg 88%
    20:00 +12°C° 0.1 mm 1 mps 697 mmHg 88%
    21:00 +12°C° 0.1 mm 1 mps 698 mmHg 89%
    22:00 +12°C° 0.1 mm 1 mps 698 mmHg 89%
    23:00 +12°C° 0 mm 1 mps 697 mmHg 90%

    Tomorrow, 18 October, Thursday

    Time Temperature Precipitation Wind Pressure Humidity
    00:00 +12°C° 0 mm 1 mps 697 mmHg 90%
    01:00 +11°C° 0 mm 1 mps 697 mmHg 91%
    02:00 +11°C° 0 mm 1 mps 697 mmHg 91%
    03:00 +11°C° 0 mm 1 mps 697 mmHg 91%
    04:00 +11°C° 0 mm 1 mps 696 mmHg 91%
    05:00 +11°C° 0 mm 1 mps 696 mmHg 91%
    06:00 +10°C° 0 mm 1 mps 696 mmHg 91%
    07:00 +10°C° 0 mm 1 mps 697 mmHg 91%
    08:00 +12°C° 0 mm 1 mps 697 mmHg 84%
    09:00 +14°C° 0 mm 1 mps 697 mmHg 77%
    10:00 +16°C° 0 mm 1 mps 698 mmHg 69%
    11:00 +18°C° 0 mm 1 mps 698 mmHg 65%
    12:00 +19°C° 0 mm 1 mps 698 mmHg 61%
    13:00 +20°C° 0 mm 1 mps 698 mmHg 57%
    14:00 +19°C° 0 mm 1 mps 697 mmHg 61%
    15:00 +19°C° 0 mm 1 mps 697 mmHg 64%
    16:00 +18°C° 0 mm 1 mps 697 mmHg 68%
    17:00 +15°C° 0 mm 1 mps 697 mmHg 74%
    18:00 +14°C° 0 mm 1 mps 697 mmHg 80%
    19:00 +12°C° 0 mm 1 mps 697 mmHg 87%
    20:00 +12°C° 0 mm 1 mps 697 mmHg 88%
    21:00 +11°C° 0 mm 1 mps 697 mmHg 89%
    22:00 +11°C° 0 mm 1 mps 697 mmHg 90%
    23:00 +11°C° 0 mm 1 mps 697 mmHg 90%

    Day after tomorrow, 19 October, Friday

    Time Temperature Precipitation Wind Pressure Humidity
    00:00 +10°C° 0 mm 1 mps 697 mmHg 90%
    01:00 +10°C° 0 mm 1 mps 697 mmHg 90%
    02:00 +10°C° 0 mm 1 mps 697 mmHg 90%
    03:00 +10°C° 0 mm 1 mps 697 mmHg 90%
    04:00 +9°C° 0 mm 1 mps 697 mmHg 90%
    05:00 +9°C° 0 mm 1 mps 697 mmHg 89%
    06:00 +8°C° 0 mm 2 mps 697 mmHg 89%
    07:00 +8°C° 0 mm 2 mps 698 mmHg 88%
    08:00 +12°C° 0 mm 2 mps 698 mmHg 79%
    09:00 +14°C° 0 mm 2 mps 699 mmHg 69%
    10:00 +16°C° 0 mm 2 mps 699 mmHg 60%
    11:00 +17°C° 0 mm 2 mps 699 mmHg 57%
    12:00 +18°C° 0 mm 2 mps 699 mmHg 54%
    13:00 +18°C° 0 mm 2 mps 699 mmHg 52%
    14:00 +19°C° 0 mm 1 mps 699 mmHg 56%
    15:00 +18°C° 0 mm 1 mps 699 mmHg 59%
    16:00 +18°C° 0 mm 1 mps 699 mmHg 63%
    17:00 +15°C° 0 mm 1 mps 699 mmHg 69%
    18:00 +13°C° 0 mm 1 mps 699 mmHg 76%
    19:00 +11°C° 0 mm 1 mps 699 mmHg 82%
    20:00 +11°C° 0 mm 1 mps 699 mmHg 83%
    21:00 +10°C° 0 mm 1 mps 700 mmHg 84%
    22:00 +10°C° 0 mm 1 mps 700 mmHg 84%
    23:00 +10°C° 0 mm 1 mps 700 mmHg 85%

    20 October, Saturday

    Time Temperature Precipitation Wind Pressure Humidity
    00:00 +9°C° 0 mm 1 mps 700 mmHg 86%
    01:00 +9°C° 0 mm 1 mps 700 mmHg 86%
    02:00 +9°C° 0 mm 1 mps 700 mmHg 87%
    03:00 +8°C° 0 mm 1 mps 700 mmHg 87%
    04:00 +8°C° 0 mm 1 mps 700 mmHg 87%
    05:00 +8°C° 0 mm 1 mps 700 mmHg 87%
    06:00 +8°C° 0 mm 1 mps 701 mmHg 87%
    07:00 +8°C° 0 mm 1 mps 701 mmHg 87%
    08:00 +10°C° 0 mm 1 mps 701 mmHg 78%
    09:00 +13°C° 0 mm 2 mps 702 mmHg 69%
    10:00 +15°C° 0 mm 2 mps 702 mmHg 60%
    11:00 +16°C° 0 mm 2 mps 702 mmHg 57%
    12:00 +17°C° 0 mm 2 mps 702 mmHg 54%
    13:00 +18°C° 0 mm 2 mps 702 mmHg 51%
    14:00 +17°C° 0 mm 2 mps 702 mmHg 54%
    15:00 +16°C° 0 mm 2 mps 702 mmHg 58%
    16:00 +16°C° 0 mm 1 mps 702 mmHg 62%
    17:00 +14°C° 0 mm 2 mps 702 mmHg 69%
    18:00 +12°C° 0 mm 2 mps 702 mmHg 75%
    19:00 +9°C° 0 mm 2 mps 702 mmHg 82%
    20:00 +9°C° 0 mm 2 mps 702 mmHg 83%
    21:00 +8°C° 0 mm 2 mps 703 mmHg 84%
    22:00 +8°C° 0 mm 2 mps 703 mmHg 85%
    23:00 +8°C° 0 mm 2 mps 703 mmHg 86%

    21 October, Sunday

    Time Temperature Precipitation Wind Pressure Humidity
    00:00 +7°C° 0 mm 2 mps 703 mmHg 86%
    01:00 +7°C° 0 mm 2 mps 703 mmHg 86%
    02:00 +7°C° 0 mm 2 mps 703 mmHg 87%
    03:00 +7°C° 0 mm 2 mps 703 mmHg 87%
    04:00 +6°C° 0 mm 2 mps 703 mmHg 88%
    05:00 +6°C° 0 mm 2 mps 703 mmHg 88%
    06:00 +6°C° 0 mm 2 mps 703 mmHg 89%
    07:00 +6°C° 0 mm 2 mps 703 mmHg 89%
    08:00 +8°C° 0 mm 2 mps 703 mmHg 80%
    09:00 +10°C° 0 mm 2 mps 703 mmHg 71%
    10:00 +13°C° 0 mm 2 mps 703 mmHg 62%
    11:00 +14°C° 0 mm 2 mps 703 mmHg 58%
    12:00 +15°C° 0 mm 2 mps 703 mmHg 54%
    13:00 +16°C° 0 mm 1 mps 702 mmHg 50%
    14:00 +15°C° 0 mm 1 mps 702 mmHg 53%
    15:00 +15°C° 0 mm 1 mps 702 mmHg 57%
    16:00 +14°C° 0 mm 1 mps 701 mmHg 61%
    17:00 +12°C° 0 mm 1 mps 701 mmHg 67%
    18:00 +10°C° 0 mm 1 mps 701 mmHg 73%
    19:00 +8°C° 0 mm 1 mps 701 mmHg 80%
    20:00 +7°C° 0 mm 2 mps 701 mmHg 80%
    21:00 +6°C° 0 mm 2 mps 701 mmHg 80%
    22:00 +6°C° 0 mm 2 mps 701 mmHg 80%
    23:00 +5°C° 0 mm 2 mps 701 mmHg 79%

    22 October, Monday

    Time Temperature Precipitation Wind Pressure Humidity
    00:00 +5°C° 0 mm 2 mps 701 mmHg 79%
    01:00 +5°C° 0 mm 2 mps 700 mmHg 78%
    02:00 +4°C° 0 mm 2 mps 700 mmHg 79%
    03:00 +4°C° 0 mm 2 mps 700 mmHg 80%
    04:00 +4°C° 0 mm 2 mps 700 mmHg 81%
    05:00 +4°C° 0 mm 2 mps 700 mmHg 81%
    06:00 +4°C° 0 mm 2 mps 700 mmHg 81%
    07:00 +4°C° 0 mm 2 mps 701 mmHg 81%
    08:00 +6°C° 0 mm 2 mps 701 mmHg 72%
    09:00 +8°C° 0 mm 2 mps 701 mmHg 63%
    10:00 +10°C° 0 mm 2 mps 701 mmHg 54%
    11:00 +12°C° 0 mm 2 mps 701 mmHg 51%
    12:00 +12°C° 0 mm 3 mps 701 mmHg 48%
    13:00 +12°C° 0 mm 3 mps 701 mmHg 45%
    14:00 +13°C° 0 mm 2 mps 701 mmHg 48%
    15:00 +12°C° 0 mm 2 mps 700 mmHg 51%
    16:00 +12°C° 0 mm 2 mps 700 mmHg 54%
    17:00 +9°C° 0 mm 2 mps 700 mmHg 60%
    18:00 +8°C° 0 mm 1 mps 700 mmHg 66%
    19:00 +6°C° 0 mm 1 mps 700 mmHg 72%
    20:00 +6°C° 0 mm 1 mps 700 mmHg 72%
    21:00 +5°C° 0 mm 1 mps 701 mmHg 73%
    22:00 +5°C° 0 mm 1 mps 701 mmHg 73%
    23:00 +5°C° 0 mm 1 mps 700 mmHg 74%
    Show more